N3EDS Weather Reports


time (UTC)temp
C
wind
direction
speed
KPH
gust
KPH
rain 1hr
cm
rain 24hr
cm
rain mn
cm
humidity
%
barometer
mb
20260504230525 18 269 3.2 9.7 0.00 0.00 0.00 56 1010.0
20260504230024 18 269 3.2 9.7 0.00 0.00 0.00 56 1010.0
20260504225520 18 196 1.6 9.7 0.00 0.00 0.00 56 1010.0
20260504225017 18 133 0.0 4.8 0.00 0.00 0.00 56 1010.0
20260504224514 18 292 1.6 4.8 0.00 0.00 0.00 55 1010.2
20260504224011 18 150 0.0 1.6 0.00 0.00 0.00 56 1010.0
20260504223508 18 160 1.6 4.8 0.00 0.00 0.00 55 1010.0
20260504223004 19 232 3.2 4.8 0.00 0.00 0.00 54 1009.9
20260504222501 19 280 3.2 4.8 0.00 0.00 0.00 53 1009.9
20260504221958 19 251 4.8 4.8 0.00 0.00 0.00 52 1009.9
20260504221455 19 187 4.8 11.3 0.00 0.00 0.00 52 1009.8
20260504220952 19 205 3.2 4.8 0.00 0.00 0.00 52 1009.8
20260504220448 19 190 1.6 3.2 0.00 0.00 0.00 51 1009.7
20260504215945 19 141 4.8 6.4 0.00 0.00 0.00 53 1009.8
20260504215442 19 184 3.2 4.8 0.00 0.00 0.00 52 1009.9
20260504214939 19 237 4.8 4.8 0.00 0.00 0.00 52 1009.8
20260504214435 19 177 6.4 9.7 0.00 0.00 0.00 51 1009.9
20260504213932 19 171 4.8 6.4 0.00 0.00 0.00 52 1009.9
20260504213428 19 170 1.6 9.7 0.00 0.00 0.00 50 1009.9
20260504212926 20 117 1.6 3.2 0.00 0.00 0.00 50 1009.8
20260504212421 20 240 4.8 9.7 0.00 0.00 0.00 48 1009.8
20260504211919 20 189 3.2 4.8 0.00 0.00 0.00 49 1009.8
20260504211415 20 319 3.2 9.7 0.00 0.00 0.00 51 1009.9
20260504210912 19 198 8.0 9.7 0.00 0.00 0.00 51 1010.0
20260504210409 20 197 6.4 6.4 0.00 0.00 0.00 51 1009.9
20260504205907 20 237 1.6 6.4 0.00 0.00 0.00 49 1009.9
20260504205404 20 260 6.4 14.5 0.00 0.00 0.00 51 1009.6
20260504204902 20 296 3.2 9.7 0.00 0.00 0.00 51 1009.7
20260504204400 21 141 3.2 9.7 0.00 0.00 0.00 51 1010.0
20260504203900 20 136 1.6 4.8 0.00 0.00 0.00 51 1009.7
20260504203356 20 158 1.6 4.8 0.00 0.00 0.00 52 1009.6
20260504202852 20 164 3.2 6.4 0.00 0.00 0.00 51 1009.9
20260504202349 21 246 3.2 3.2 0.00 0.00 0.00 50 1009.7
20260504201845 21 187 1.6 3.2 0.00 0.00 0.00 47 1009.9
20260504201343 20 235 6.4 14.5 0.00 0.00 0.00 51 1009.7
20260504200840 20 215 3.2 9.7 0.00 0.00 0.00 50 1010.0
20260504200337 20 281 4.8 6.4 0.00 0.00 0.00 52 1010.0
20260504195833 19 198 6.4 9.7 0.00 0.00 0.00 51 1010.0
20260504195329 20 184 4.8 12.9 0.00 0.00 0.00 52 1009.8
20260504194826 20 221 3.2 9.7 0.00 0.00 0.00 52 1010.2
20260504194322 18 175 6.4 6.4 0.00 0.00 0.00 52 1009.9
20260504193818 19 172 1.6 4.8 0.00 0.00 0.00 53 1010.5
20260504193316 20 88 3.2 4.8 0.00 0.00 0.00 51 1009.9
20260504192814 20 179 3.2 6.4 0.00 0.00 0.00 50 1010.2
20260504192312 20 148 3.2 6.4 0.00 0.00 0.00 49 1010.0
20260504191810 20 111 1.6 9.7 0.00 0.00 0.00 51 1010.5
20260504191307 20 8 4.8 9.7 0.00 0.00 0.00 52 1010.1
20260504190803 19 193 4.8 6.4 0.00 0.00 0.00 50 1010.5
20260504190259 19 116 3.2 6.4 0.00 0.00 0.00 52 1010.6
20260504185755 19 231 12.9 20.9 0.00 0.00 0.00 51 1010.4
20260504185253 20 227 6.4 11.3 0.00 0.00 0.00 49 1010.7
20260504184749 20 314 3.2 9.7 0.00 0.00 0.00 49 1010.7
20260504184244 19 277 6.4 14.5 0.00 0.00 0.00 51 1010.8
20260504183740 20 150 1.6 4.8 0.00 0.00 0.00 49 1010.6
20260504183237 20 162 3.2 6.4 0.00 0.00 0.00 53 1010.9
20260504182736 19 242 4.8 9.7 0.00 0.00 0.00 51 1010.9
20260504182233 18 195 4.8 9.7 0.00 0.00 0.00 51 1011.2
20260504181730 18 243 3.2 4.8 0.00 0.00 0.00 52 1011.3
20260504181227 18 205 3.2 9.7 0.00 0.00 0.00 52 1011.4
20260504180726 18 209 3.2 12.9 0.00 0.00 0.00 53 1011.2
20260504180225 18 272 6.4 9.7 0.00 0.00 0.00 51 1011.2
20260504175722 18 168 4.8 11.3 0.00 0.00 0.00 49 1011.1
20260504175218 18 197 8.0 12.9 0.00 0.00 0.00 50 1011.1
20260504174716 18 176 3.2 11.3 0.00 0.00 0.00 52 1011.2
20260504174214 18 138 3.2 9.7 0.00 0.00 0.00 50 1011.3
20260504173710 19 193 6.4 11.3 0.00 0.00 0.00 48 1011.3
20260504173208 18 189 6.4 6.4 0.00 0.00 0.00 48 1011.4
20260504172704 18 185 4.8 6.4 0.00 0.00 0.00 48 1011.3
20260504172200 18 182 3.2 4.8 0.00 0.00 0.00 50 1011.4
20260504171657 18 244 3.2 4.8 0.00 0.00 0.00 49 1011.5
20260504171154 18 144 6.4 9.7 0.00 0.00 0.00 48 1011.7
20260504170650 18 135 6.4 9.7 0.00 0.00 0.00 47 1011.6
20260504170148 18 224 3.2 6.4 0.00 0.00 0.00 50 1011.8
20260504160107 17 206 4.8 9.7 0.00 0.00 0.00 47 1012.5
20260504151028 16 174 3.2 6.4 0.00 0.00 0.00 47 1012.8
20260504150525 17 63 3.2 3.2 0.00 0.00 0.00 47 1013.0